FW1654 Weather Reports


Display with metric or nautical units.
time (UTC)temp
F
wind
direction
speed
MPH
gust
MPH
rain 1hr
in
rain 24hr
in
rain mn
in
humidity
%
barometer
mb
20260905224223 87 206 3.0 5.0 0.00 0.00 0.00 66 1016.3
20260905223721 87 212 3.0 5.0 0.00 0.00 0.00 65 1016.3
20260905223221 87 196 3.0 6.0 0.00 0.00 0.00 64 1016.3
20260905222719 87 205 3.0 6.0 0.00 0.00 0.00 63 1016.3
20260905222222 87 196 3.0 6.0 0.00 0.00 0.00 63 1016.3
20260905221719 87 251 3.0 6.0 0.00 0.00 0.00 63 1016.3
20260905221453 87 255 3.0 6.0 0.00 0.00 0.00 63 1016.3
20260905220947 87 208 3.0 5.0 0.00 0.00 0.00 63 1016.3
20260905220220 87 257 3.0 5.0 0.00 0.00 0.00 64 1016.3
20260905215933 87 256 3.0 6.0 0.00 0.00 0.00 63 1016.2
20260905215204 87 228 3.0 6.0 0.00 0.00 0.00 63 1016.2
20260905214703 87 205 4.0 6.0 0.00 0.00 0.00 63 1016.2
20260905214200 87 210 4.0 7.0 0.00 0.00 0.00 64 1016.1
20260905213659 87 208 3.0 7.0 0.00 0.00 0.00 61 1016.1
20260905213200 87 213 3.0 6.0 0.00 0.00 0.00 63 1016.1
20260905212658 87 258 4.0 6.0 0.00 0.00 0.00 63 1015.9
20260905212158 87 199 4.0 7.0 0.00 0.00 0.00 63 1015.9
20260905211700 87 191 4.0 7.0 0.00 0.00 0.00 61 1015.9
20260905211419 87 208 4.0 7.0 0.00 0.00 0.00 65 1015.8
20260905210659 87 218 3.0 7.0 0.00 0.00 0.00 63 1015.8
20260905210422 87 223 3.0 5.0 0.00 0.00 0.00 62 1015.8
20260905205658 87 236 4.0 6.0 0.00 0.00 0.00 63 1016.2
20260905205158 86 249 4.0 6.0 0.00 0.00 0.00 65 1016.2
20260905204659 86 209 4.0 6.0 0.00 0.00 0.00 65 1016.2
20260905204159 86 189 4.0 7.0 0.00 0.00 0.00 66 1016.1
20260905203653 86 226 3.0 7.0 0.00 0.00 0.00 65 1016.1
20260905203153 86 194 3.0 6.0 0.00 0.00 0.00 65 1016.1
20260905202653 86 205 4.0 8.0 0.00 0.00 0.00 66 1016.2
20260905202416 86 202 4.0 9.0 0.00 0.00 0.00 68 1016.2
20260905201653 86 199 3.0 9.0 0.00 0.00 0.00 66 1016.2
20260905201153 85 173 3.0 5.0 0.00 0.00 0.00 66 1016.5
20260905200650 85 187 4.0 6.0 0.00 0.00 0.00 69 1016.5
20260905200148 85 181 4.0 6.0 0.00 0.00 0.00 68 1016.5
20260905195638 85 179 3.0 6.0 0.00 0.00 0.00 68 1016.5
20260905195138 85 199 3.0 5.0 0.00 0.00 0.00 67 1016.5
20260905194638 84 222 3.0 7.0 0.00 0.00 0.00 70 1016.5
20260905194359 84 205 3.0 7.0 0.00 0.00 0.00 67 1016.8
20260905193639 84 215 3.0 5.0 0.00 0.00 0.00 67 1016.8
20260905193138 82 73 2.0 2.0 0.00 0.00 0.00 68 1016.8
20260905192638 82 73 2.0 3.0 0.00 0.00 0.00 68 1016.9
20260905192117 82 73 2.0 3.0 0.00 0.00 0.00 68 1016.9
20260905191609 82 75 2.0 5.0 0.00 0.00 0.00 69 1016.9
20260905191109 82 84 2.0 5.0 0.00 0.00 0.00 68 1017.3
20260905190608 81 191 2.0 4.0 0.00 0.00 0.00 71 1017.3
20260905190108 81 339 2.0 5.0 0.00 0.00 0.00 71 1017.3
20260905185608 81 7 2.0 5.0 0.00 0.00 0.00 72 1017.7
20260905185108 80 1 2.0 4.0 0.00 0.00 0.00 76 1017.7
20260905184609 80 74 2.0 5.0 0.00 0.00 0.00 75 1017.7
20260905184335 80 72 2.0 5.0 0.00 0.00 0.00 77 1018.0
20260905183609 79 77 2.0 4.0 0.00 0.00 0.00 77 1018.0
20260905183108 78 205 2.0 4.0 0.00 0.00 0.00 80 1018.0
20260905182608 78 64 2.0 4.0 0.00 0.00 0.00 83 1018.5
20260905182058 77 65 2.0 4.0 0.00 0.00 0.00 84 1018.5
20260905181601 77 40 2.0 4.0 0.00 0.00 0.00 85 1018.5
20260905181058 76 70 2.0 5.0 0.00 0.00 0.00 87 1018.7
20260905180558 76 76 2.0 5.0 0.00 0.00 0.00 88 1018.7
20260905180059 75 55 1.0 5.0 0.00 0.00 0.00 88 1018.7
20260905175558 74 69 1.0 4.0 0.00 0.00 0.00 92 1019.2
20260905175058 74 76 2.0 3.0 0.00 0.00 0.00 94 1019.2
20260905174558 74 78 2.0 3.0 0.00 0.00 0.00 96 1019.2
20260905174046 73 72 0.0 3.0 0.00 0.00 0.00 97 1019.6
20260905173546 73 330 0.0 3.0 0.00 0.00 0.00 97 1019.6
20260905173044 73 10 2.0 2.0 0.00 0.00 0.00 98 1019.6
20260905172543 73 10 2.0 3.0 0.00 0.00 0.00 97 1019.7
20260905172020 73 59 0.0 3.0 0.00 0.00 0.00 98 1019.7
20260905171518 73 100 0.0 2.0 0.00 0.00 0.00 98 1019.7
20260905171240 73 9 1.0 2.0 0.00 0.00 0.00 98 1019.2
20260905170518 73 9 1.0 2.0 0.00 0.00 0.00 97 1019.2
20260905170015 72 10 2.0 2.0 0.00 0.00 0.00 97 1019.2
20260905165515 72 197 2.0 2.0 0.00 0.00 0.00 96 1019.3
20260905164935 72 197 2.0 2.0 0.00 0.00 0.00 96 1019.3
20260905164427 72 197 2.0 3.0 0.00 0.00 0.00 96 1019.3
20260905163921 72 197 2.0 3.0 0.00 0.00 0.00 96 1019.6
20260905163647 73 196 2.0 5.0 0.00 0.00 0.00 95 1019.6
20260905162915 73 197 2.0 5.0 0.00 0.00 0.00 95 1019.6
20260905162408 73 240 2.0 3.0 0.00 0.00 0.00 94 1020.0
20260905161909 73 248 2.0 3.0 0.00 0.00 0.00 93 1020.0
20260905161345 73 248 2.0 3.0 0.00 0.00 0.00 92 1020.0
20260905161054 74 219 2.0 3.0 0.00 0.00 0.00 91 1020.5
20260905160334 74 219 2.0 8.0 0.00 0.00 0.00 89 1020.5
20260905160108 75 254 4.0 8.0 0.00 0.00 0.00 87 1020.5
20260905155554 80 37 3.0 8.0 0.00 0.00 0.00 74 1020.0
20260905155048 80 37 3.0 11.0 0.00 0.00 0.00 74 1020.0
20260905154311 80 37 3.0 11.0 0.00 0.00 0.00 74 1020.0
20260905153734 80 18 3.0 9.0 0.00 0.00 0.00 74 1019.8
20260905153234 81 77 3.0 9.0 0.00 0.00 0.00 78 1019.8
20260905152957 82 169 0.0 7.0 0.00 0.00 0.00 80 1019.8
20260905152231 82 324 2.0 2.0 0.00 0.00 0.00 79 1019.1
20260905151735 82 324 2.0 3.0 0.00 0.00 0.00 79 1019.1
20260905151449 82 324 2.0 3.0 0.00 0.00 0.00 79 1019.1
20260905150725 82 190 2.0 5.0 0.00 0.00 0.00 79 1018.6
20260905150208 81 186 2.0 5.0 0.00 0.00 0.00 79 1018.6
20260905145711 81 206 2.0 4.0 0.00 0.00 0.00 79 1018.7
20260905145211 81 199 2.0 3.0 0.00 0.00 0.00 82 1018.7
20260905144921 80 201 2.0 3.0 0.00 0.00 0.00 83 1018.7
20260905144153 80 201 2.0 3.0 0.00 0.00 0.00 83 1018.5
20260905143636 80 201 2.0 4.0 0.00 0.00 0.00 83 1018.5
20260905143120 80 202 2.0 4.0 0.00 0.00 0.00 83 1018.5
20260905143101 79 203 2.0 4.0 0.00 0.00 0.00 83 1018.7
20260905142129 79 239 2.0 4.0 0.00 0.00 0.00 84 1018.7
20260905141620 78 201 2.0 4.0 0.00 0.00 0.00 86 1018.7
20260905141126 78 210 2.0 3.0 0.00 0.00 0.00 87 1018.8
20260905140626 77 255 1.0 3.0 0.00 0.00 0.00 87 1018.8
20260905140120 77 14 1.0 3.0 0.00 0.00 0.00 88 1018.8
20260905135620 77 17 2.0 5.0 0.00 0.00 0.00 89 1019.1
20260905135118 76 17 2.0 5.0 0.00 0.00 0.00 89 1019.1
20260905134841 76 5 2.0 4.0 0.00 0.00 0.00 88 1019.1
20260905134100 76 5 2.0 5.0 0.00 0.00 0.00 89 1019.0
20260905133558 76 342 2.0 4.0 0.00 0.00 0.00 91 1019.0
20260905133058 75 11 2.0 4.0 0.00 0.00 0.00 91 1019.0
20260905132553 75 4 2.0 4.0 0.00 0.00 0.00 91 1019.0
20260905132048 75 66 2.0 3.0 0.00 0.00 0.00 93 1019.0
20260905131548 74 36 2.0 4.0 0.00 0.00 0.00 92 1019.0
20260905131046 74 339 2.0 4.0 0.00 0.00 0.00 92 1019.1
20260905130546 74 69 2.0 5.0 0.00 0.00 0.00 94 1019.1
20260905130309 73 72 2.0 5.0 0.00 0.00 0.00 94 1019.1
20260905125543 73 76 2.0 4.0 0.00 0.00 0.00 95 1019.2
20260905125046 73 76 2.0 4.0 0.00 0.00 0.00 96 1019.2
20260905124539 72 11 2.0 3.0 0.00 0.00 0.00 96 1019.2
20260905124029 72 4 1.0 3.0 0.00 0.00 0.00 96 1019.2
20260905123528 72 55 1.0 3.0 0.00 0.00 0.00 97 1019.2
20260905123018 72 16 2.0 3.0 0.00 0.00 0.00 97 1019.2
20260905122456 71 16 2.0 2.0 0.00 0.00 0.00 98 1019.0
20260905122218 71 16 1.0 3.0 0.00 0.00 0.00 98 1019.0
20260905121451 71 16 1.0 3.0 0.00 0.00 0.00 98 1019.0
20260905120949 71 24 2.0 2.0 0.00 0.00 0.00 98 1018.9
20260905120448 71 24 2.0 2.0 0.00 0.00 0.00 98 1018.9
20260905115948 70 8 1.0 2.0 0.00 0.00 0.00 99 1018.9
20260905115447 70 8 1.0 3.0 0.00 0.00 0.00 99 1018.8
20260905114942 70 8 1.0 4.0 0.00 0.00 0.00 99 1018.8
20260905114709 70 8 1.0 4.0 0.00 0.00 0.00 99 1018.8
20260905113931 70 15 0.0 3.0 0.00 0.00 0.00 99 1018.6
20260905113430 70 15 0.0 3.0 0.00 0.00 0.00 98 1018.6
20260905112927 70 15 1.0 0.0 0.00 0.00 0.00 98 1018.6
20260905112637 70 15 1.0 0.0 0.00 0.00 0.00 98 1018.5
20260905111921 70 15 0.0 0.0 0.00 0.00 0.00 98 1018.5
20260905111428 70 15 0.0 2.0 0.00 0.00 0.00 98 1018.5
20260905110851 70 15 0.0 2.0 0.00 0.00 0.00 98 1018.3
20260905110623 70 15 0.0 2.0 0.00 0.00 0.00 98 1018.3
20260905110054 70 12 1.0 2.0 0.00 0.00 0.00 98 1018.3
20260905105314 70 12 1.0 2.0 0.00 0.00 0.00 98 1018.1
20260905104810 70 12 1.0 2.0 0.00 0.00 0.00 98 1018.1
20260905104258 70 12 1.0 2.0 0.00 0.00 0.00 98 1018.1
20260905103801 70 12 1.0 3.0 0.00 0.00 0.00 98 1018.1
20260905103242 70 12 1.0 3.0 0.00 0.00 0.00 98 1018.1
20260905103001 70 12 0.0 2.0 0.00 0.00 0.00 98 1018.1
20260905102242 70 12 0.0 2.0 0.00 0.00 0.00 98 1018.1
20260905101740 70 12 0.0 2.0 0.00 0.00 0.00 98 1018.1
20260905101230 70 12 0.0 0.0 0.00 0.00 0.00 97 1018.0
20260905101218 70 12 0.0 0.0 0.00 0.00 0.00 97 1018.0
20260905100213 70 12 0.0 0.0 0.00 0.00 0.00 97 1018.0
20260905095928 70 12 0.0 0.0 0.00 0.00 0.00 97 1018.0
20260905095431 71 12 0.0 0.0 0.00 0.00 0.00 97 1018.0
20260905094659 71 12 0.0 0.0 0.00 0.00 0.00 97 1018.0
20260905094139 71 12 0.0 0.0 0.00 0.00 0.00 97 1017.9
20260905093630 71 12 0.0 0.0 0.00 0.00 0.00 97 1017.9
20260905093121 71 12 1.0 1.0 0.00 0.00 0.00 97 1017.9
20260905092627 71 12 1.0 3.0 0.00 0.00 0.00 97 1017.8
20260905092123 71 12 1.0 3.0 0.00 0.00 0.00 97 1017.8
20260905091624 71 12 2.0 4.0 0.00 0.00 0.00 97 1017.8
20260905091125 71 12 2.0 4.0 0.00 0.00 0.00 97 1017.7
20260905090626 71 12 1.0 3.0 0.00 0.00 0.00 97 1017.7
20260905090107 71 12 2.0 3.0 0.00 0.00 0.00 97 1017.7
20260905085832 71 12 2.0 2.0 0.00 0.00 0.00 96 1017.8
20260905085107 71 12 2.0 3.0 0.00 0.00 0.00 97 1017.8
20260905084605 71 12 2.0 3.0 0.00 0.00 0.00 97 1017.8
20260905084103 71 44 2.0 3.0 0.00 0.00 0.00 96 1017.8
20260905083834 71 48 2.0 4.0 0.00 0.00 0.00 96 1017.8
20260905083103 71 16 2.0 4.0 0.00 0.00 0.00 96 1017.8
20260905082558 71 7 2.0 4.0 0.00 0.00 0.00 96 1017.9
20260905082058 72 2 2.0 4.0 0.00 0.00 0.00 96 1017.9
20260905081558 72 3 2.0 3.0 0.00 0.00 0.00 96 1017.9
20260905081053 72 3 1.0 3.0 0.00 0.00 0.00 96 1018.1
20260905080545 72 3 1.0 3.0 0.00 0.00 0.00 96 1018.1
20260905080305 72 3 2.0 3.0 0.00 0.00 0.00 96 1018.1
20260905075539 72 3 2.0 3.0 0.00 0.00 0.00 95 1018.1
20260905075017 72 3 2.0 3.0 0.00 0.00 0.00 96 1018.1
20260905074748 72 3 2.0 3.0 0.00 0.00 0.00 95 1018.1
20260905074017 72 3 2.0 4.0 0.00 0.00 0.00 95 1018.1
20260905073513 72 2 2.0 4.0 0.00 0.00 0.00 95 1018.1
20260905073008 72 3 1.0 4.0 0.00 0.00 0.00 95 1018.1
20260905072731 72 7 1.0 3.0 0.00 0.00 0.00 94 1018.5
20260905072234 72 7 0.0 3.0 0.00 0.00 0.00 95 1018.5
20260905071724 73 7 0.0 2.0 0.00 0.00 0.00 94 1018.5
20260905071227 73 7 1.0 2.0 0.00 0.00 0.00 94 1018.6
20260905070441 73 7 1.0 2.0 0.00 0.00 0.00 94 1018.6
20260905070200 73 7 3.0 4.0 0.00 0.00 0.00 94 1018.6
20260905065415 73 7 3.0 4.0 0.00 0.00 0.00 94 1018.7
20260905064920 73 5 4.0 5.0 0.00 0.00 0.00 94 1018.7
20260905064413 73 9 4.0 5.0 0.00 0.00 0.00 94 1018.7
20260905063913 73 2 4.0 6.0 0.00 0.00 0.00 94 1018.9
20260905063412 73 28 4.0 6.0 0.00 0.00 0.00 94 1018.9
20260905062913 73 14 3.0 6.0 0.00 0.00 0.00 94 1018.9
20260905062413 73 5 3.0 5.0 0.00 0.00 0.00 94 1019.1
20260905061912 73 1 3.0 5.0 0.00 0.00 0.00 94 1019.1
20260905061410 73 16 3.0 5.0 0.00 0.00 0.00 94 1019.1
20260905060905 73 22 2.0 5.0 0.00 0.00 0.00 94 1019.1
20260905060405 73 8 2.0 5.0 0.00 0.00 0.00 94 1019.1
20260905055901 73 31 2.0 4.0 0.00 0.00 0.00 94 1019.1
20260905055610 73 31 2.0 4.0 0.00 0.00 0.00 94 1019.3
20260905054848 73 56 2.0 4.0 0.00 0.00 0.00 94 1019.3
20260905054827 73 42 2.0 3.0 0.00 0.00 0.00 94 1019.3
20260905053844 73 24 3.0 5.0 0.00 0.00 0.00 94 1019.4
20260905053339 73 58 3.0 5.0 0.00 0.00 0.00 94 1019.4
20260905053107 73 2 2.0 5.0 0.00 0.00 0.00 94 1019.4
20260905052559 73 66 2.0 4.0 0.00 0.00 0.00 94 1019.5
20260905051830 73 70 2.0 4.0 0.00 0.00 0.00 94 1019.5
20260905051335 73 74 2.0 4.0 0.00 0.00 0.00 94 1019.5
20260905050828 73 75 2.0 4.0 0.00 0.00 0.00 93 1019.6
20260905050325 74 71 2.0 4.0 0.00 0.00 0.00 93 1019.6
20260905045823 74 62 2.0 3.0 0.00 0.00 0.00 93 1019.6
20260905045318 74 63 2.0 3.0 0.00 0.00 0.00 93 1019.5
20260905044818 74 62 1.0 3.0 0.00 0.00 0.00 93 1019.5
20260905044318 74 341 1.0 2.0 0.00 0.00 0.00 93 1019.5
20260905043812 74 341 2.0 2.0 0.00 0.00 0.00 92 1019.5
20260905043310 74 341 2.0 3.0 0.00 0.00 0.00 92 1019.5
20260905042809 74 341 2.0 4.0 0.00 0.00 0.00 92 1019.5
20260905042526 74 338 2.0 4.0 0.00 0.00 0.00 92 1019.5
20260905041803 74 36 2.0 4.0 0.00 0.00 0.00 91 1019.5
20260905041254 74 37 2.0 4.0 0.00 0.00 0.00 91 1019.5
20260905040749 74 53 2.0 2.0 0.00 0.00 0.00 91 1019.4
20260905040253 74 53 2.0 3.0 0.00 0.00 0.00 91 1019.4
20260905040012 74 53 0.0 3.0 0.00 0.00 0.00 91 1019.4
20260905035247 74 59 0.0 2.0 0.00 0.00 0.00 90 1019.4
20260905034745 75 5 0.0 1.0 0.00 0.00 0.00 89 1019.4
20260905034502 75 5 0.0 1.0 0.00 0.00 0.00 89 1019.4
20260905033744 75 5 2.0 3.0 0.00 0.00 0.00 89 1019.3
20260905033450 75 5 2.0 4.0 0.00 0.00 0.00 89 1019.3
20260905032715 75 5 0.0 4.0 0.00 0.00 0.00 89 1019.1
20260905032208 75 5 0.0 3.0 0.00 0.00 0.00 89 1019.1
20260905031703 75 5 1.0 2.0 0.00 0.00 0.00 89 1019.1
20260905031155 75 5 1.0 3.0 0.00 0.00 0.00 88 1019.0
20260905030652 75 5 2.0 4.0 0.00 0.00 0.00 88 1019.0
20260905030152 75 5 2.0 5.0 0.00 0.00 0.00 88 1019.0
20260905025653 75 4 2.0 5.0 0.00 0.00 0.00 88 1018.8
20260905025152 76 26 2.0 3.0 0.00 0.00 0.00 87 1018.8
20260905024648 76 26 2.0 4.0 0.00 0.00 0.00 87 1018.8
20260905024148 76 27 2.0 4.0 0.00 0.00 0.00 86 1018.8
20260905023636 76 348 3.0 5.0 0.00 0.00 0.00 86 1018.8
20260905023140 76 11 3.0 5.0 0.00 0.00 0.00 85 1018.8
20260905022634 76 16 2.0 4.0 0.00 0.00 0.00 84 1018.6
20260905022347 77 211 2.0 3.0 0.00 0.00 0.00 84 1018.6
20260905021851 77 211 4.0 3.0 0.00 0.00 0.00 83 1018.6
20260905021117 78 25 2.0 3.0 0.00 0.00 0.00 80 1018.7
20260905020603 78 25 2.0 3.0 0.00 0.00 0.00 80 1018.7
20260905020312 78 25 2.0 4.0 0.00 0.00 0.00 80 1018.7
20260905020205 78 32 2.0 3.0 0.00 0.00 0.00 80 1018.7
20260905020200 78 347 2.0 4.0 0.00 0.00 0.00 80 1018.7
20260905020045 78 32 2.0 3.0 0.00 0.00 0.00 80 1018.7
20260905014026 78 355 0.0 2.0 0.00 0.00 0.00 80 1018.9
20260905013520 78 355 0.0 2.0 0.00 0.00 0.00 80 1018.9
20260905013020 78 355 2.0 3.0 0.00 0.00 0.00 79 1018.9
20260905012517 78 355 2.0 4.0 0.00 0.00 0.00 79 1019.0
20260905012017 78 355 0.0 4.0 0.00 0.00 0.00 79 1019.0
20260905011512 78 356 0.0 3.0 0.00 0.00 0.00 78 1019.0
20260905011012 79 356 0.0 2.0 0.00 0.00 0.00 78 1019.0
20260905010510 79 356 0.0 2.0 0.00 0.00 0.00 77 1019.0
20260905010139 79 356 2.0 4.0 0.00 0.00 0.00 76 1018.9
20260905010023 79 356 2.0 3.0 0.00 0.00 0.00 77 1019.0
20260905004930 79 355 2.0 4.0 0.00 0.00 0.00 75 1018.9
20260905004649 80 10 2.0 3.0 0.00 0.00 0.00 75 1018.9
20260905003928 80 13 2.0 3.0 0.00 0.00 0.00 76 1019.2
20260905003428 80 66 2.0 3.0 0.00 0.00 0.00 74 1019.2
20260905002918 81 70 2.0 4.0 0.00 0.00 0.00 73 1019.2
20260905002418 81 70 2.0 4.0 0.00 0.00 0.00 72 1019.2
20260905002138 82 7 4.0 6.0 0.00 0.00 0.00 73 1019.2
20260905001406 82 8 4.0 7.0 0.00 0.00 0.00 71 1019.2
20260905000902 82 4 1.0 7.0 0.00 0.00 0.00 71 1019.2
20260905000405 82 355 1.0 4.0 0.00 0.00 0.00 69 1019.2
20260904235856 83 273 2.0 2.0 0.00 0.00 0.00 70 1019.2
20260904235352 83 273 2.0 3.0 0.00 0.00 0.00 70 1019.0
20260904234851 83 273 3.0 4.0 0.00 0.00 0.00 69 1019.0
20260904234556 83 213 3.0 6.0 0.00 0.00 0.00 69 1019.0
20260904233833 83 206 2.0 6.0 0.00 0.00 0.00 68 1019.1
20260904233333 83 62 2.0 0.0 0.00 0.00 0.00 64 1019.1
20260904233038 83 62 2.0 2.0 0.00 0.00 0.00 64 1019.1
20260904232254 83 62 2.0 6.0 0.00 0.00 0.00 64 1018.9
20260904231755 83 62 2.0 6.0 0.00 0.00 0.00 63 1018.9
20260904231254 84 57 2.0 6.0 0.00 0.00 0.00 63 1018.9
20260904230755 84 74 1.0 3.0 0.00 0.00 0.00 62 1018.8
20260904230250 86 14 3.0 3.0 0.00 0.00 0.00 61 1018.8
20260904230009 86 14 3.0 3.0 0.00 0.00 0.00 61 1018.8
20260904225228 86 14 3.0 4.0 0.00 0.00 0.00 61 1018.8
20260904224728 86 335 3.0 5.0 0.00 0.00 0.00 60 1018.8